Time,TemperatureF,DewpointF,PressureIn,WindDirection,WindDirectionDegrees,WindSpeedMPH,WindSpeedGustMPH,Humidity,HourlyPrecipIn,Conditions,Clouds,dailyrainin,SolarRadiationWatts/m^2,SoftwareType,DateUTC
2013-04-07 00:02:00,60.0,45.0,-100.00,South,191,6.0,11.0,57,0.00,,,0.00,0.000000,,2013-04-07 05:02:00,
2013-04-07 00:34:00,59.0,46.0,-100.00,SSW,212,5.0,9.0,62,0.00,,,0.00,0.000000,,2013-04-07 05:34:00,
2013-04-07 00:43:00,59.0,46.0,-100.00,SSW,212,5.0,9.0,62,0.00,,,0.00,0.000000,,2013-04-07 05:43:00,
2013-04-07 00:52:00,59.0,46.0,-100.00,SSW,212,5.0,9.0,62,0.00,,,0.00,0.000000,,2013-04-07 05:52:00,
2013-04-07 01:02:00,59.0,46.0,-100.00,SSW,212,5.0,9.0,62,0.00,,,0.00,0.000000,,2013-04-07 06:02:00,
2013-04-07 01:32:00,59.0,45.0,-100.00,SW,219,5.0,8.0,60,0.00,,,0.00,0.000000,,2013-04-07 06:32:00,
2013-04-07 01:43:00,59.0,45.0,-100.00,SW,219,5.0,8.0,60,0.00,,,0.00,0.000000,,2013-04-07 06:43:00,
2013-04-07 01:52:00,59.0,45.0,-100.00,SW,219,5.0,8.0,60,0.00,,,0.00,0.000000,,2013-04-07 06:52:00,
2013-04-07 02:02:00,59.0,45.0,-100.00,SW,219,5.0,8.0,60,0.00,,,0.00,0.000000,,2013-04-07 07:02:00,
2013-04-07 02:33:00,59.0,45.0,-100.00,SW,219,4.0,7.0,60,0.00,,,0.00,0.000000,,2013-04-07 07:33:00,
2013-04-07 02:42:00,59.0,45.0,-100.00,SW,219,4.0,7.0,60,0.00,,,0.00,0.000000,,2013-04-07 07:42:00,
2013-04-07 02:52:00,59.0,45.0,-100.00,SW,219,4.0,7.0,60,0.00,,,0.00,0.000000,,2013-04-07 07:52:00,
2013-04-07 03:02:00,59.0,45.0,-100.00,SW,219,4.0,7.0,60,0.00,,,0.00,0.000000,,2013-04-07 08:02:00,
2013-04-07 03:33:00,58.0,45.0,-100.00,SSW,207,4.0,6.0,61,0.00,,,0.00,0.000000,,2013-04-07 08:33:00,
2013-04-07 03:43:00,58.0,45.0,-100.00,SSW,207,4.0,6.0,61,0.00,,,0.00,0.000000,,2013-04-07 08:43:00,
2013-04-07 03:53:00,58.0,45.0,-100.00,SSW,207,4.0,6.0,61,0.00,,,0.00,0.000000,,2013-04-07 08:53:00,
2013-04-07 04:02:00,58.0,45.0,-100.00,SSW,207,4.0,6.0,61,0.00,,,0.00,0.000000,,2013-04-07 09:02:00,
2013-04-07 04:34:00,58.0,45.0,-100.00,SW,227,4.0,6.0,62,0.00,,,0.00,0.000000,,2013-04-07 09:34:00,
2013-04-07 04:44:00,58.0,45.0,-100.00,SW,227,4.0,6.0,62,0.00,,,0.00,0.000000,,2013-04-07 09:44:00,
2013-04-07 04:54:00,58.0,45.0,-100.00,SW,227,4.0,6.0,62,0.00,,,0.00,0.000000,,2013-04-07 09:54:00,
2013-04-07 05:34:00,56.0,44.0,-100.00,South,181,5.0,7.0,65,0.00,,,0.00,0.000000,,2013-04-07 10:34:00,
2013-04-07 05:43:00,56.0,44.0,-100.00,South,181,5.0,7.0,65,0.00,,,0.00,0.000000,,2013-04-07 10:43:00,
2013-04-07 05:54:00,56.0,44.0,-100.00,South,181,5.0,7.0,65,0.00,,,0.00,0.000000,,2013-04-07 10:54:00,
2013-04-07 06:03:00,56.0,44.0,-100.00,South,181,5.0,7.0,65,0.00,,,0.00,0.000000,,2013-04-07 11:03:00,
2013-04-07 06:33:00,57.0,46.0,-100.00,SSE,160,2.0,5.0,67,0.00,,,0.00,0.000000,,2013-04-07 11:33:00,
2013-04-07 06:43:00,57.0,46.0,-100.00,SSE,160,2.0,5.0,67,0.00,,,0.00,0.000000,,2013-04-07 11:43:00,
2013-04-07 06:53:00,57.0,46.0,-100.00,SSE,160,2.0,5.0,67,0.00,,,0.00,0.000000,,2013-04-07 11:53:00,
2013-04-07 07:02:00,57.0,46.0,-100.00,SSE,160,2.0,5.0,67,0.00,,,0.00,0.000000,,2013-04-07 12:02:00,
2013-04-07 07:35:00,56.0,47.0,-100.00,SE,144,6.0,7.0,71,0.00,,,-99.99,1.000000,,2013-04-07 12:35:00,
2013-04-07 07:43:00,56.0,47.0,-100.00,SE,144,6.0,7.0,71,0.00,,,-99.99,1.000000,,2013-04-07 12:43:00,
2013-04-07 07:54:00,56.0,47.0,-100.00,SE,144,6.0,7.0,71,0.00,,,-99.99,1.000000,,2013-04-07 12:54:00,
2013-04-07 08:03:00,56.0,47.0,-100.00,SE,144,6.0,7.0,71,0.00,,,-99.99,1.000000,,2013-04-07 13:03:00,
2013-04-07 08:33:00,56.0,48.0,-100.00,SSE,164,7.0,8.0,75,0.00,,,0.00,47.000000,,2013-04-07 13:33:00,
2013-04-07 08:43:00,56.0,48.0,-100.00,SSE,164,7.0,8.0,75,0.00,,,0.00,47.000000,,2013-04-07 13:43:00,
2013-04-07 08:53:00,56.0,48.0,-100.00,SSE,164,7.0,8.0,75,0.00,,,0.00,47.000000,,2013-04-07 13:53:00,
2013-04-07 09:02:00,56.0,48.0,-100.00,SSE,164,7.0,8.0,75,0.00,,,0.00,47.000000,,2013-04-07 14:02:00,
2013-04-07 09:33:00,58.0,50.0,-100.00,SSE,159,5.0,8.0,75,0.00,,,0.00,148.000000,,2013-04-07 14:33:00,
2013-04-07 09:44:00,58.0,50.0,-100.00,SSE,159,5.0,8.0,75,0.00,,,0.00,148.000000,,2013-04-07 14:44:00,
2013-04-07 09:54:00,58.0,50.0,-100.00,SSE,159,5.0,8.0,75,0.00,,,0.00,148.000000,,2013-04-07 14:54:00,
2013-04-07 10:03:00,58.0,50.0,-100.00,SSE,159,5.0,8.0,75,0.00,,,0.00,148.000000,,2013-04-07 15:03:00,
2013-04-07 10:35:00,62.0,53.0,-100.00,South,176,8.0,13.0,73,0.00,,,0.00,469.000000,,2013-04-07 15:35:00,
2013-04-07 10:45:00,62.0,53.0,-100.00,South,176,8.0,13.0,73,0.00,,,0.00,469.000000,,2013-04-07 15:45:00,
2013-04-07 10:55:00,62.0,53.0,-100.00,South,176,8.0,13.0,73,0.00,,,0.00,469.000000,,2013-04-07 15:55:00,
2013-04-07 11:04:00,62.0,53.0,-100.00,South,176,8.0,13.0,73,0.00,,,0.00,469.000000,,2013-04-07 16:04:00,
2013-04-07 11:34:00,63.0,55.0,-100.00,SSW,200,8.0,17.0,76,0.00,,,0.00,734.000000,,2013-04-07 16:34:00,
2013-04-07 11:44:00,63.0,55.0,-100.00,SSW,200,8.0,17.0,76,0.00,,,0.00,734.000000,,2013-04-07 16:44:00,
2013-04-07 11:54:00,63.0,55.0,-100.00,SSW,200,8.0,17.0,76,0.00,,,0.00,734.000000,,2013-04-07 16:54:00,
2013-04-07 12:04:00,63.0,55.0,-100.00,SSW,200,8.0,17.0,76,0.00,,,0.00,734.000000,,2013-04-07 17:04:00,
2013-04-07 12:33:00,64.0,55.0,-100.00,South,169,10.0,15.0,73,0.00,,,0.00,959.000000,,2013-04-07 17:33:00,
2013-04-07 12:43:00,64.0,55.0,-100.00,South,169,10.0,15.0,73,0.00,,,0.00,959.000000,,2013-04-07 17:43:00,
2013-04-07 12:54:00,64.0,55.0,-100.00,South,169,10.0,15.0,73,0.00,,,0.00,959.000000,,2013-04-07 17:54:00,
2013-04-07 13:02:00,64.0,55.0,-100.00,South,169,10.0,15.0,73,0.00,,,0.00,959.000000,,2013-04-07 18:02:00,
2013-04-07 13:33:00,65.0,56.0,-100.00,South,175,8.0,14.0,74,0.00,,,0.00,847.000000,,2013-04-07 18:33:00,
2013-04-07 13:44:00,65.0,56.0,-100.00,South,175,8.0,14.0,74,0.00,,,0.00,847.000000,,2013-04-07 18:44:00,
2013-04-07 13:53:00,65.0,56.0,-100.00,South,175,8.0,14.0,74,0.00,,,0.00,847.000000,,2013-04-07 18:53:00,
2013-04-07 14:02:00,65.0,56.0,-100.00,South,175,8.0,14.0,74,0.00,,,0.00,847.000000,,2013-04-07 19:02:00,
2013-04-07 14:33:00,65.0,55.0,-100.00,SSE,150,10.0,17.0,71,0.00,,,0.00,724.000000,,2013-04-07 19:33:00,
2013-04-07 14:43:00,65.0,55.0,-100.00,SSE,150,10.0,17.0,71,0.00,,,0.00,724.000000,,2013-04-07 19:43:00,
2013-04-07 14:55:00,65.0,55.0,-100.00,SSE,150,10.0,17.0,71,0.00,,,0.00,724.000000,,2013-04-07 19:55:00,
2013-04-07 15:02:00,65.0,55.0,-100.00,SSE,150,10.0,17.0,71,0.00,,,0.00,724.000000,,2013-04-07 20:02:00,
2013-04-07 15:33:00,64.0,55.0,-100.00,SSE,151,10.0,19.0,72,0.00,,,0.00,482.000000,,2013-04-07 20:33:00,
2013-04-07 15:44:00,64.0,55.0,-100.00,SSE,151,10.0,19.0,72,0.00,,,0.00,482.000000,,2013-04-07 20:44:00,
2013-04-07 15:54:00,64.0,55.0,-100.00,SSE,151,10.0,19.0,72,0.00,,,0.00,482.000000,,2013-04-07 20:54:00,
2013-04-07 16:03:00,64.0,55.0,-100.00,SSE,151,10.0,19.0,72,0.00,,,0.00,482.000000,,2013-04-07 21:03:00,
2013-04-07 16:35:00,64.0,56.0,-100.00,SSE,148,12.0,17.0,75,0.00,,,0.00,388.000000,,2013-04-07 21:35:00,
2013-04-07 16:45:00,64.0,56.0,-100.00,SSE,148,12.0,17.0,75,0.00,,,0.00,388.000000,,2013-04-07 21:45:00,
2013-04-07 16:55:00,64.0,56.0,-100.00,SSE,148,12.0,17.0,75,0.00,,,0.00,388.000000,,2013-04-07 21:55:00,
2013-04-07 17:04:00,64.0,56.0,-100.00,SSE,148,12.0,17.0,75,0.00,,,0.00,388.000000,,2013-04-07 22:04:00,
2013-04-07 17:34:00,63.0,55.0,-100.00,SSE,153,11.0,19.0,75,0.00,,,0.00,191.000000,,2013-04-07 22:34:00,
2013-04-07 17:44:00,63.0,55.0,-100.00,SSE,153,11.0,19.0,75,0.00,,,0.00,191.000000,,2013-04-07 22:44:00,
2013-04-07 17:53:00,63.0,55.0,-100.00,SSE,153,11.0,19.0,75,0.00,,,0.00,191.000000,,2013-04-07 22:53:00,
2013-04-07 18:03:00,63.0,55.0,-100.00,SSE,153,11.0,19.0,75,0.00,,,0.00,191.000000,,2013-04-07 23:03:00,
2013-04-07 18:33:00,62.0,54.0,-100.00,SSE,149,12.0,21.0,76,0.00,,,0.00,97.000000,,2013-04-07 23:33:00,
2013-04-07 18:43:00,62.0,54.0,-100.00,SSE,149,12.0,21.0,76,0.00,,,0.00,97.000000,,2013-04-07 23:43:00,
2013-04-07 18:53:00,62.0,54.0,-100.00,SSE,149,12.0,21.0,76,0.00,,,0.00,97.000000,,2013-04-07 23:53:00,
2013-04-07 19:02:00,62.0,54.0,-100.00,SSE,149,12.0,21.0,76,0.00,,,0.00,97.000000,,2013-04-08 00:02:00,
2013-04-07 19:33:00,61.0,53.0,-100.00,SSE,154,13.0,20.0,75,0.00,,,0.00,42.000000,,2013-04-08 00:33:00,
2013-04-07 19:43:00,61.0,53.0,-100.00,SSE,154,13.0,20.0,75,0.00,,,0.00,42.000000,,2013-04-08 00:43:00,
2013-04-07 19:53:00,61.0,53.0,-100.00,SSE,154,13.0,20.0,75,0.00,,,0.00,42.000000,,2013-04-08 00:53:00,
2013-04-07 20:02:00,61.0,53.0,-100.00,SSE,154,13.0,20.0,75,0.00,,,0.00,42.000000,,2013-04-08 01:02:00,
2013-04-07 20:34:00,60.0,53.0,-100.00,SSE,157,15.0,22.0,77,0.00,,,0.00,7.000000,,2013-04-08 01:34:00,
2013-04-07 20:44:00,60.0,53.0,-100.00,SSE,157,15.0,22.0,77,0.00,,,0.00,7.000000,,2013-04-08 01:44:00,
2013-04-07 20:55:00,60.0,53.0,-100.00,SSE,157,15.0,22.0,77,0.00,,,0.00,7.000000,,2013-04-08 01:55:00,
2013-04-07 21:03:00,60.0,53.0,-100.00,SSE,157,15.0,22.0,77,0.00,,,0.00,7.000000,,2013-04-08 02:03:00,
2013-04-07 21:33:00,60.0,53.0,-100.00,SSE,155,15.0,24.0,79,0.00,,,0.00,0.000000,,2013-04-08 02:33:00,
2013-04-07 21:48:00,60.0,53.0,-100.00,SSE,155,15.0,24.0,79,0.00,,,0.00,0.000000,,2013-04-08 02:48:00,
2013-04-07 21:54:00,60.0,53.0,-100.00,SSE,155,15.0,24.0,79,0.00,,,0.00,0.000000,,2013-04-08 02:54:00,
2013-04-07 22:07:00,60.0,53.0,-100.00,SSE,155,15.0,24.0,79,0.00,,,0.00,0.000000,,2013-04-08 03:07:00,
2013-04-07 22:37:00,60.0,54.0,-100.00,SSE,153,14.0,25.0,81,0.00,,,0.00,0.000000,,2013-04-08 03:37:00,
2013-04-07 22:48:00,60.0,54.0,-100.00,SSE,153,14.0,25.0,81,0.00,,,0.00,0.000000,,2013-04-08 03:48:00,
2013-04-07 22:57:00,60.0,54.0,-100.00,SSE,153,14.0,25.0,81,0.00,,,0.00,0.000000,,2013-04-08 03:57:00,
2013-04-07 23:03:00,60.0,54.0,-100.00,SSE,153,14.0,25.0,81,0.00,,,0.00,0.000000,,2013-04-08 04:03:00,
2013-04-07 23:34:00,59.0,55.0,-100.00,SSE,159,14.0,22.0,88,0.00,,,0.00,0.000000,,2013-04-08 04:34:00,
2013-04-07 23:44:00,59.0,55.0,-100.00,SSE,159,14.0,22.0,88,0.00,,,0.00,0.000000,,2013-04-08 04:44:00,
2013-04-07 23:53:00,59.0,55.0,-100.00,SSE,159,14.0,22.0,88,0.00,,,0.00,0.000000,,2013-04-08 04:53:00,